Regional Weather Roundup
Issued by NWS Northern Indiana

Home | Current Version | Previous Version | Graphics & Text | Print | Product List | Glossary On
Versions: 1 2 3 4 5 6 7 8 9 10 11 12 13 14 15 16 17 18 19 20 21 22 23 24 25 26 27 28 29 30 31 32 33 34 35 36 37 38 39 40 41 42 43 44 45 46 47 48 49 50
000
ASUS43 KIWX 221410
RWRIWX

KIWX WEATHER ROUNDUP
NATIONAL WEATHER SERVICE NORTHERN INDIANA
1000 AM EDT THU JUN 22 2017

NOTE: "FAIR" INDICATES FEW OR NO CLOUDS BELOW 12,000 FEET WITH NO
SIGNIFICANT WEATHER AND/OR OBSTRUCTIONS TO VISIBILITY.

* THESE STATIONS ARE NOT UNDER NWS QUALITY CONTROL. THEY ALSO MAY NOT
  REPORT WEATHER SUCH AS PRECIPITATION OR FOG.

INZ001>027-221500-
NORTHERN INDIANA

CITY           SKY/WX    TMP DP  RH WIND       PRES   REMARKS
GARY*          PTSUNNY   75  68  78 S8        29.90S
VALPARAISO     LGT RAIN  76  71  85 S6        29.93R
MICHIGAN CITY* CLOUDY    75  68  78 SW10      29.91F
LAPORTE*       LGT RAIN  73  69  87 S6        29.94S
KNOX*          CLOUDY    73  59  60 SW9       29.94R
SOUTH BEND     LGT RAIN  74  69  85 SW8       29.93R
ELKHART*       CLOUDY    75  66  73 SW6       29.94R
GOSHEN         MOSUNNY   75  67  76 SW9       29.94R
MONTICELLO*    CLOUDY    76  70  82 SW8       29.94R
LOGANSPORT*    CLOUDY    73  70  88 SW7       29.96S
ROCHESTER*     CLOUDY    77  70  78 SW7       29.95F
WARSAW*        CLOUDY    73  66  78 SW7       29.95R
AUBURN*        CLOUDY    75  66  73 SW3       29.96R
FORT WAYNE     CLOUDY    75  68  78 SW10      29.97S
PERU/GRISSOM   LGT RAIN  75  72  88 SW7       29.95S
MARION*        CLOUDY    77  70  78 SW12G17   29.98S

$$
INZ028>050-221500-
CENTRAL INDIANA

CITY           SKY/WX    TMP DP  RH WIND       PRES   REMARKS
LAFAYETTE      SUNNY     77  70  79 VRB7      29.93F
KOKOMO*        CLOUDY    80  70  71 SW14      29.97R
MUNCIE*        SUNNY     80  69  69 SW9       29.98R
INDIANAPOLIS   MOSUNNY   78  69  73 SW12      29.98S

$$
MIZ043>046-050>051-056>058-064>065-071>073-077>080-221500-
SOUTHWEST LOWER MICHIGAN

CITY           SKY/WX    TMP DP  RH WIND       PRES   REMARKS
BATTLE CREEK   CLOUDY    72  68  87 SW9       29.93R
BENTON HARBOR  CLOUDY    80  66  62 SW14      29.89F
COLDWATER*     CLOUDY    74  67  78 SW10      29.94R
HILLSDALE*     CLOUDY    72  64  78 SW6       29.94S
HOLLAND        PTSUNNY   77  66  68 SW16      29.87F
GRAND RAPIDS   CLOUDY    79  68  69 SW13      29.87S
KALAMAZOO      CLOUDY    74  66  76 SW9       29.92R
STURGIS*       CLOUDY    73  68  83 W7        29.94R
THREE RIVERS*  PTSUNNY   74  67  78 CALM      29.94R

$$
OHZ001>008-015>018-024>025-221500-
NORTHWEST OHIO

CITY           SKY/WX    TMP DP  RH WIND       PRES   REMARKS
WAUSEON*       FAIR      75  70  83 SW12      29.94R
DEFIANCE       CLOUDY    74  67  78 SW7       29.95R
FINDLAY        CLOUDY    78  65  63 SW9       29.96F
TOLEDO EXPRESS CLOUDY    75  69  81 SW9       29.94R
TOLEDO METCALF CLOUDY    78  70  76 SW13      29.94S
LIMA           CLOUDY    77  69  76 SW8       29.99R

$$
AND FOR LAKE MICHIGAN COASTAL AND OPEN LAKE BUOY OBSERVATIONS

STATION/POSITION TEMP    WIND        PRES    VSBY  WAVE
                 AIR SEA DIR/SP/G                  HT/PER
                 (F)     (DEG/KT/KT) (MB)    (MI)  (FT/S)
CALUMET HARBOR    76     190/  9/ 13 1011.4F
MICHIGAN CITY     75     190/ 13/ 15   N/A
BURNS HARBOR      76     220/ 11/ 17 1013.2R
SOUTH LAKE BUOY   65 61  180/ 10/ 10 1010.9          2/ 4
4 MI NW BRIDGMAN  72 69  210/ 10/ 12 1011.9          2/ 3
MICHIGAN CITY     72 68  200/ 12/ 14   N/A           2/ 3

$$
&&




USA.gov is the U.S. government's official web portal to all federal, state and local government web resources and services.